Location: Conover
(35.7170°N, 81.2250°W)
Time: 00:09:43
(UTC-04:00)

Daily predictions for brighter satellites

Satellite Brightness Start Highest point End
(mag) Time Altitude Azimuth Time Altitude Azimuth Time Altitude Azimuth
Cosmos 1709 Rocket 3.9 00:12:51 10° N 00:19:04 75° W 00:19:27 72° SW
ALOS 2 4.3 00:20:27 26° NE 00:20:27 26° NE 00:23:10 10° NNE
Cosmos 2278 Rocket 3.0 00:20:26 38° WSW 00:21:51 45° WNW 00:27:18 10° N
NOSS 3-4 (A) 3.8 00:20:16 41° WSW 00:22:15 59° NW 00:28:32 10° NNE
NOSS 3-4 (C) 3.8 00:20:26 42° WSW 00:22:20 60° NW 00:28:38 10° NNE
COSMOS 2406 4.4 00:25:49 10° NW 00:30:39 32° W 00:30:39 32° W
Cosmos 2074 Rocket 4.3 00:25:15 10° N 00:31:22 54° E 00:31:22 54° E
Cosmos 1461 4.5 00:34:20 35° WNW 00:34:35 35° NW 00:38:57 10° NNE
CENTAUR R/B 3.7 00:30:30 10° NNW 00:38:18 50° NE 00:41:25 36° ESE
ADEOS Rocket 3.0 00:37:26 10° NNE 00:43:06 69° E 00:43:06 69° E
USA 234 3.3 00:40:32 10° NE 00:46:17 61° E 00:46:17 61° E
RESURS DK-1 4.2 00:50:15 28° N 00:50:15 28° N 00:52:21 10° NNE
H-2A R/B 3.8 00:53:56 27° NNE 00:53:56 27° NNE 00:56:08 10° N
H-2A R/B 4.1 00:49:48 41° SW 00:53:29 61° SSE 06:53:08 10° SE
Meteor 1-27 4.4 00:47:47 10° N 00:53:08 73° NW 00:53:08 73° NW
Cosmos 2369 Rocket 4.1 00:55:50 19° ENE 00:55:50 19° ENE 00:58:17 10° NE
Cosmos 2297 4.1 01:01:31 58° WNW 01:01:31 58° WNW 01:06:58 10° NNE
Meteor 2-10 Rocket 4.3 01:00:59 10° N 01:05:02 45° NE 01:05:02 45° NE
Cosmos 2184 Rocket 4.0 00:59:57 10° N 01:06:02 79° WNW 01:06:02 79° WNW
Mayak 0.5 01:05:18 10° N 01:07:42 31° NNW 01:07:42 31° NNW
Meteor 2-21 4.4 01:05:06 10° N 01:10:42 76° NNE 01:10:42 76° NNE
Cosmos 2154 Rocket 4.2 01:06:37 10° N 01:12:47 64° ENE 01:12:47 64° ENE
Cosmos 2082 Rocket 2.6 01:07:21 10° NNW 01:12:02 58° NW 01:12:02 58° NW
ATLAS 5 CENTAUR R/B 3.4 01:14:00 26° NW 01:14:16 26° NW 01:18:20 10° N
ATLAS 3B R/B 4.0 01:11:56 10° NW 01:16:10 25° W 01:16:10 25° W
Cosmos 1833 Rocket 3.5 01:16:53 10° NNW 01:20:59 42° WNW 01:20:59 42° WNW
Cosmos 2341 Rocket 4.5 01:17:19 10° N 01:23:30 51° E 01:23:35 51° E
CZ-4B R/B 4.5 01:34:58 10° N 01:39:27 41° NW 01:39:27 41° NW
Cosmos 1943 Rocket 3.1 01:45:58 39° ENE 01:45:58 39° ENE 01:50:02 10° NE
BREEZE-M R/B 4.3 01:43:04 10° NW 01:48:45 75° SW 01:48:58 74° SSW
MOS 1 Rocket 4.2 01:48:47 10° NNE 01:52:22 47° NNE 01:52:22 47° NNE
Cosmos 1140 Rocket 4.1 01:55:35 50° NNW 01:55:35 50° NNW 01:59:40 10° N
Cosmos 1633 Rocket 4.4 02:08:40 36° NE 02:08:40 36° NE 02:11:31 10° NNE
Cosmos 2366 rocket 4.2 02:03:35 10° N 02:09:38 57° E 02:09:59 56° E
Cosmos 1959 Rocket 4.4 02:13:22 10° N 02:19:45 78° E 02:20:03 76° ESE
Meteor 2-3 Rocket 3.8 02:25:50 69° E 02:25:50 69° E 02:31:26 10° NNE
Cosmos 304 Rocket 4.4 02:21:38 10° N 02:25:31 53° NNE 02:25:31 53° NNE
CENTAUR R/B 3.7 02:21:31 10° NW 02:28:33 39° WSW 02:28:33 39° WSW
USA 234 4.5 02:23:54 10° NNE 02:29:44 36° NNW 02:33:36 19° W
Resurs 1-4 Rocket 3.6 02:28:42 10° NE 02:33:02 25° E 02:33:30 25° ESE
Cosmos 2369 Rocket 2.8 02:37:36 44° WNW 02:37:43 44° WNW 02:43:07 10° N
SL-08 R/B 4.3 02:33:46 10° N 02:39:55 88° E 02:40:18 80° SSE
Cosmos 1850 Rocket 4.5 02:40:46 52° NW 02:40:46 52° NW 02:45:25 10° N
BREEZE-M DEB (TANK) 4.0 02:42:16 48° WSW 02:44:13 73° NW 02:47:38 10° NE
Lacrosse 4 Rocket 2.6 02:52:46 39° ENE 02:52:46 39° ENE 02:56:04 10° NE
GP-B 3.7 02:49:30 10° N 02:53:22 54° ENE 02:53:22 54° ENE
Cosmos 2242 Rocket 4.0 02:54:19 10° N 02:58:04 61° N 02:58:04 61° N
CBERS-1 4.2 02:56:13 10° NNE 03:01:17 58° ESE 03:01:34 57° ESE
SL-08 R/B 4.5 03:00:50 32° ESE 03:02:09 39° ENE 03:06:31 10° N
ARIANE 5 R/B 4.0 02:58:17 10° NE 03:02:21 25° E 03:03:29 23° ESE
Cosmos 1825 3.6 03:07:42 34° NNW 03:07:42 34° NNW 03:10:00 10° N
Cosmos 1606 3.8 03:02:56 10° N 03:05:33 42° N 03:05:33 42° N
Cosmos 1763 Rocket 4.2 03:02:53 10° N 03:07:47 48° ENE 03:09:28 35° ESE
Cosmos 1821 Rocket 4.4 03:03:58 10° N 03:10:13 61° E 03:12:45 36° SE
Cosmos 1656 Rocket 3.6 03:14:34 66° WSW 03:15:09 72° WNW 03:20:49 10° NNE
Cosmos 1408 4.5 03:18:48 24° NW 03:18:48 24° NW 03:20:46 10° NNW
CZ-4B R/B 3.9 03:20:23 14° NNW 03:20:23 14° NNW 03:20:59 10° NNW
Cosmos 1867 3.4 03:20:08 72° SSW 03:20:42 86° ESE 03:26:12 10° NNE
IRS-1C 4.2 03:16:36 10° NNE 03:21:55 68° ESE 03:22:56 55° SSE
Cosmos 1814 Rocket 4.3 03:18:28 10° N 03:23:44 63° ENE 03:25:46 36° SE
Cosmos 1833 4.0 03:21:10 10° NNW 03:26:46 77° WSW 03:27:46 60° S
Cosmos 1943 Rocket 3.7 03:27:29 20° WNW 03:28:42 22° WNW 03:32:58 10° N
Cosmos 1437 Rocket 3.5 03:29:54 46° ESE 03:30:11 47° E 03:34:09 10° NNE
NPP 3.6 03:25:03 10° N 03:30:23 65° WNW 03:31:12 57° WSW
Meteor 2-6 Rocket 4.1 03:25:08 10° N 03:30:32 80° E 03:32:08 47° SSE
Cosmos 1862 Rocket 4.4 03:28:39 10° NNW 03:32:05 37° WNW 03:32:05 37° WNW
Cosmos 1703 Rocket 3.8 03:29:28 10° N 03:33:51 66° E 03:34:34 55° SE
Cosmos 1818 3.6 03:31:44 10° NNW 03:37:14 82° ENE 03:40:39 24° SSE
Cosmos 841 Rocket 3.8 03:32:06 10° N 03:37:17 63° ENE 03:40:09 26° SE
Spot 4 Rocket 4.3 03:32:32 10° NNE 03:37:37 59° E 03:39:10 41° SSE
CZ-2D R/B 2.1 03:35:37 10° N 03:40:55 74° WNW 03:42:08 53° SW
AQUA 3.9 03:36:43 10° N 03:41:24 59° WNW 03:41:55 55° WSW
Cosmos 1782 3.6 03:38:06 10° NNW 03:41:03 39° NW 03:41:03 39° NW
ADEOS II 3.8 03:40:33 10° NE 03:44:53 25° E 03:48:33 13° SSE
Cosmos 468 Rocket 4.4 03:40:11 10° NNW 03:44:48 42° W 03:44:48 42° W
Cosmos 1184 Rocket 4.3 03:42:13 10° NNE 03:45:12 32° ENE 03:45:51 29° ESE
Okean 1-7 3.3 03:42:16 10° N 03:46:39 66° E 03:47:59 42° SSE
Meteor 1-10 Rocket 4.1 03:42:38 10° NNW 03:48:11 70° W 03:49:55 45° SSW
SL-16 R/B 2.5 03:46:32 40° S 03:48:48 67° WSW 03:54:58 10° NNW
IRS-1D 3.4 03:43:46 10° N 03:48:53 77° WNW 03:50:08 51° SSW
Meteor 1-27 Rocket 4.0 03:45:03 10° N 03:50:52 72° E 03:54:47 22° SSE
Cosmos 2219 4.3 03:47:09 10° N 03:52:33 44° ENE 03:57:52 10° SE
UNK 3.9 03:55:00 50° WSW 03:55:21 51° W 03:59:55 10° NNW
H-2A R/B 2.8 03:51:46 10° N 03:55:34 45° WNW 03:55:37 45° WNW
Meteor 1-4 Rocket 2.7 03:56:02 60° SE 03:56:23 66° E 04:00:02 10° NNE
PSLV R/B 3.9 03:58:15 42° SSE 03:59:37 86° E 04:03:51 10° NNW
Cosmos 1354 Rocket 4.1 03:58:31 36° S 04:00:36 70° ESE 04:05:49 10° NNE
Cosmos 1535 Rocket 4.5 03:56:13 10° NNW 04:02:14 63° W 04:04:57 33° SSW
Cosmos 1486 Rocket 4.4 04:03:11 39° WSW 04:04:43 51° WNW 04:09:55 10° N
Cosmos 44 Rocket 4.0 04:03:27 30° SSE 04:05:20 45° ESE 04:10:03 10° NE
GPS 2-04 Rocket1 3.5 04:06:03 35° SSE 04:06:03 35° SSE 04:09:45 10° E
Cosmos 1605 Rocket 4.0 04:00:12 10° N 04:06:20 81° E 04:11:12 17° S
Resurs 1-4 Rocket 3.0 04:08:04 10° N 04:12:52 35° WNW 04:14:35 28° WSW
Cosmos 1862 4.2 04:12:47 31° W 04:12:56 31° WNW 04:16:29 10° NNW
Cosmos 1339 Rocket 4.5 04:09:18 27° S 04:12:56 87° W 04:19:19 10° N
CBERS 1 LM4 rocket 4.3 04:09:04 10° NNE 04:14:06 89° ESE 04:16:25 32° SSW
SAR-Lupe-2 3.9 04:17:03 21° SSE 04:19:17 64° ENE 04:22:50 10° N
Cosmos 44 3.2 04:17:36 38° SW 04:19:19 74° WNW 04:24:13 10° NNE
Cosmos 2297 Rocket 4.2 04:15:58 10° N 04:20:51 29° ENE 04:25:41 10° ESE
Cosmos 389 Rocket 3.0 04:21:40 28° SSE 04:23:20 58° E 04:26:55 10° NNE
Cosmos 1934 Rocket 4.3 04:17:57 10° NNW 04:23:57 47° W 04:27:12 26° SSW
ATLAS CENTAUR Rocket 2.7 04:26:13 28° SSW 04:27:24 33° SSE 04:34:12 10° E
Cosmos 2227 Rocket 3.7 04:23:55 10° N 04:29:10 38° ENE 04:34:24 10° SE
STPSAT 2 (USA 217) 4.5 04:25:52 10° NNW 04:30:23 79° WSW 04:34:51 10° SSE
Cosmos 968 Rocket 3.6 04:27:07 22° S 04:30:34 73° ESE 04:35:50 10° NNE
Lacrosse 4 Rocket 3.6 04:29:05 13° W 04:30:47 16° NW 04:33:33 10° NNW
Cosmos 1503 Rocket 4.2 04:28:22 29° SW 04:30:51 57° WNW 04:35:56 10° N
COSMOS 2455 2.8 04:25:52 10° NNW 04:31:52 69° WSW 04:37:48 10° SSE
UNKNOWN OBJECT B 3.1 04:35:05 10° N 04:38:58 53° WNW 04:40:53 27° SW
Delta 2 Rocket 3.6 04:37:15 17° W 04:40:38 90° N 04:45:42 10° E
ARIANE 5 R/B 3.5 04:37:05 10° N 04:41:26 31° WNW 04:43:50 21° WSW
Cosmos 2221 Rocket 4.3 04:40:36 10° NNW 04:44:37 34° W 04:46:37 23° SW
Meteor 1-14 Rocket 4.3 04:41:04 13° S 04:46:14 83° E 04:52:02 10° N
ATLAS CENTAUR R/B 1.1 04:45:54 27° SW 04:47:51 73° WNW 04:51:46 10° NNE
Cosmos 1633 2.8 04:46:49 26° SW 04:48:33 51° W 04:52:05 10° N
CZ-2D R/B 4.2 04:45:57 10° N 04:49:54 38° WNW 04:52:06 21° SW
ASTEX 1 3.4 04:50:17 10° S 04:55:17 84° W 05:00:18 10° N
Cosmos 1727 Rocket 4.4 04:51:33 18° SW 04:55:51 44° W 05:01:48 10° N
SEDSat Delta rocket 4.3 04:56:27 18° SSW 04:56:38 18° SSW 04:59:31 10° SSE
Cosmos 1656 3.7 04:53:38 15° SSW 04:58:30 88° WNW 05:04:13 10° NNE
Cosmos 374 Rocket 4.3 04:56:51 10° NW 05:01:20 80° WSW 05:05:11 10° SSE
Meteor 1-25 Rocket 4.2 04:56:20 12° SSW 05:01:32 72° W 05:07:06 10° N
Cosmos 2173 Rocket 4.0 04:56:22 10° N 05:02:30 85° E 05:08:35 10° S
ADEOS 4.3 04:59:51 10° N 05:04:39 38° WNW 05:08:38 14° SW
PSLV R/B 3.9 05:01:07 10° NNE 05:05:29 67° E 05:09:50 10° S
Cosmos 540 Rocket 4.4 05:04:12 10° NW 05:08:31 28° W 05:12:48 10° SSW
CZ-3 R/B 4.2 04:52:46 13° SW 05:09:52 28° S 05:17:15 10° ESE
Centaur D AC-28 3.8 05:02:07 10° W 05:09:58 22° SW 05:13:40 10° SSE
Shenzhou-11 Module 4.0 05:08:28 11° S 05:10:24 18° SE 05:12:33 10° E
Helios 1A Rocket 4.4 05:13:54 10° NNW 05:16:58 21° WNW 05:19:42 12° WSW
Meteor 2-12 Rocket 4.4 05:11:16 10° NNW 05:17:22 68° W 05:23:23 10° S
Cosmos 1812 3.8 05:14:51 10° NNW 05:18:08 26° W 05:21:21 10° SSW
Cosmos 1602 3.8 05:14:45 10° S 05:18:36 81° E 05:22:27 10° N
Lacrosse 5 4.2 05:15:42 10° NNW 05:20:03 28° NE 05:24:22 10° E
ATLAS 2A CENTAUR R/B 3.4 05:11:50 11° WSW 05:20:23 35° S 05:25:00 10° ESE
Cosmos 1697 Rocket 2.7 05:15:41 10° SSW 05:21:20 90° WNW 05:27:02 10° NNE
ADEOS II 2.9 05:19:52 10° N 05:24:34 34° WNW 05:29:15 10° SW
NOSS 3-1 (C) 4.2 05:17:07 10° NNW 05:24:59 82° WSW 05:33:36 10° SSE
CZ-4B R/B 3.1 05:24:48 10° NNE 05:28:54 81° E 05:33:12 10° S
PSLV R/B 3.3 05:27:08 10° WNW 05:30:05 67° NNE 05:33:01 10° ESE
Cosmos 1782 Rocket 3.7 05:26:10 10° S 05:30:35 81° E 05:34:59 10° N
Cosmos 2016 Rocket 4.1 05:24:20 10° N 05:30:45 82° W 05:37:03 10° S
Cosmos 1378 Rocket 3.6 05:28:43 10° NNW 05:33:07 66° W 05:37:30 10° S
Okean 3 4.1 05:29:51 10° NNW 05:33:42 37° W 05:37:34 10° SSW
Cosmos 1802 Rocket 4.1 05:28:38 10° NNW 05:34:47 62° W 05:40:50 10° S
MOS 1-B 4.4 05:29:19 10° NNE 05:35:07 88° WNW 05:40:54 10° SSW
Cosmos 2369 4.3 05:29:50 10° SW 05:35:10 43° WNW 05:40:34 10° N
Cosmos 2219 4.4 05:32:08 10° NW 05:36:19 22° W 05:40:29 10° SSW
NOSS 7 (E) 4.4 05:34:28 10° SW 05:37:46 56° WNW 05:40:44 10° NNE
Cosmos 2061 Rocket 4.1 05:32:16 10° NNW 05:38:22 59° W 05:44:30 10° S
Gbstr 26 Del rocket 3.3 05:35:14 10° SSW 05:38:52 51° SE 05:42:54 10° ENE
Milstar 3 Cent rocket 3.6 05:33:44 10° W 05:47:02 55° S 05:53:33 10° ESE
